User: anonymous   Login
Location: Unspecified
(0.0000°N, 0.0000°E)
Time: 17:45:06
(UTC+00:00)
Language:

Landsat 7 - Orbit

View from above orbital plane
View from above orbital plane
View from above satellite
View from above satellite

Ground track
Ground track

The orbit data is extracted from the following two-line orbital elements,

1 25682U 99020A   15209.20108608 -.00000015  00000-0  67479-5 0  9990
2 25682 098.2161 278.5803 0001073 090.6171 269.5145 14.57112003866118
Epoch (UTC): 28 July 2015 04:49:33
Eccentricity: 0.0001073
inclination: 98.2161°
perigee height: 702 km
apogee height: 703 km
right ascension of ascending node: 278.5803°
argument of perigee: 90.6171°
revolutions per day: 14.57112003
mean anomaly at epoch: 269.5145°
orbit number at epoch: 86611

The dashed part of the orbit path shows where the satellite is in the earth's shadow,  

DLR